Location: ????????
(55.0808°N, 38.5463°E)
Time: 15:31:35
(UTC+00:00)

BlueWalker 3 - Visible Passes

Search period start: 21 June 2024 00:00
Search period end: 01 July 2024 00:00
Orbit: 480 x 494 km, 53.2° (Epoch: 21 June)

Date Brightness Start Highest point End Pass type
(mag) Time Alt. Az. Time Alt. Az. Time Alt. Az.
21 Jun 1.8 20:37:44 10° W 20:41:28 67° S 20:45:11 10° E visible
21 Jun 2.0 22:15:49 10° W 22:19:26 47° SSW 22:23:02 10° SE visible
22 Jun 1.8 20:12:02 10° W 20:15:45 67° S 20:19:29 10° E visible
22 Jun 2.0 21:50:06 10° W 21:53:43 49° SSW 21:57:21 10° ESE visible
22 Jun 3.3 23:28:41 10° W 23:31:18 18° SW 23:33:55 10° S visible
23 Jun 1.8 19:46:19 10° WSW 19:50:03 66° S 19:53:46 10° E visible
23 Jun 2.0 21:24:23 10° W 21:28:01 50° SSW 21:31:39 10° ESE visible
23 Jun 3.3 23:02:54 10° W 23:05:37 19° SW 23:08:19 10° S visible
24 Jun 1.8 19:20:36 10° WSW 19:24:19 66° S 19:28:03 10° E visible
24 Jun 2.0 20:58:39 10° W 21:02:18 51° SSW 21:05:57 10° ESE visible
24 Jun 3.2 22:37:08 10° W 22:39:55 20° SW 22:42:10 12° S visible
25 Jun 2.0 20:32:55 10° W 20:36:35 52° SSW 20:40:14 10° ESE visible
25 Jun 3.2 22:11:22 10° W 22:14:13 21° SW 22:15:42 17° S visible
26 Jun 2.0 20:07:11 10° W 20:10:51 54° SSW 20:14:30 10° ESE visible
26 Jun 3.2 21:45:35 10° W 21:48:30 22° SW 21:49:46 18° S visible
27 Jun 2.0 19:41:25 10° W 19:45:06 55° SSW 19:48:47 10° ESE visible
27 Jun 3.1 21:19:48 10° W 21:22:47 23° SSW 21:24:06 19° S visible
28 Jun 2.0 19:15:40 10° W 19:19:21 56° SSW 19:23:02 10° ESE visible
28 Jun 3.1 20:54:01 10° W 20:57:03 24° SSW 20:58:37 18° S visible
29 Jun 3.1 20:28:12 10° W 20:31:19 25° SSW 20:33:13 17° S visible
30 Jun 3.1 20:02:24 10° W 20:05:34 26° SSW 20:07:54 14° SSE visible
